Location: Ithaca
(42.4410°N, 76.4970°W)
Time: 13:14:29
(UTC-04:00)

ISS - Visible Passes

Search period start: 24 May 2015 00:00
Search period end: 03 June 2015 00:00
Orbit: 399 x 404 km, 51.6° (Epoch: 24 May)

Date Brightness Start Highest point End Pass type
(mag) Time Alt. Az. Time Alt. Az. Time Alt. Az.
24 May -1.0 01:56:38 23° NE 01:56:38 23° NE 01:58:02 10° NE visible
24 May -0.8 03:29:12 10° WNW 03:31:40 19° NNW 03:34:08 10° NE visible
25 May -1.3 02:37:37 23° NW 02:38:15 24° NNW 02:41:00 10° NE visible
25 May -0.4 04:13:19 10° NW 04:15:28 16° N 04:17:38 10° NE visible
26 May -1.1 01:45:57 26° NNE 01:45:57 26° NNE 01:47:54 10° NE visible
26 May -0.4 03:19:46 10° NW 03:21:58 17° N 03:24:10 10° NE visible
26 May -0.7 04:56:38 10° NW 04:59:14 21° NNE 05:01:51 10° ENE visible
27 May -0.5 00:54:12 14° NE 00:54:12 14° NE 00:54:46 10° NE visible
27 May -0.6 02:26:45 13° NW 02:28:29 19° N 02:30:52 10° NE visible
27 May -0.4 04:03:26 10° NW 04:05:46 18° N 04:08:06 10° NE visible
28 May -1.0 01:34:50 23° NNW 01:35:00 23° NNW 01:37:41 10° NE visible
28 May -0.3 03:10:05 10° NW 03:12:14 16° N 03:14:25 10° NE visible
28 May -1.3 04:46:25 10° NW 04:49:23 31° NNE 04:52:22 10° E visible
29 May -1.0 00:42:42 24° NNE 00:42:42 24° NNE 00:44:32 10° NE visible
29 May -0.3 02:16:32 10° NW 02:18:42 16° N 02:20:52 10° NE visible
29 May -0.7 03:53:16 10° NW 03:55:56 23° NNE 03:58:38 10° ENE visible
29 May -1.2 23:49:59 22° NE 23:49:59 22° NE 23:51:21 10° NE visible
30 May -0.4 01:22:49 10° NW 01:25:09 18° N 01:27:29 10° NE visible
30 May -0.4 03:00:03 10° NW 03:02:26 18° N 03:04:50 10° ENE visible
30 May -2.5 04:36:08 10° NW 04:39:22 56° NNE 04:42:35 10° ESE visible
30 May -1.3 21:17:59 10° SSE 21:18:51 11° SE 21:19:52 10° ESE visible
30 May -3.5 22:51:36 10° SW 22:54:51 88° NNW 22:58:07 10° NE visible
31 May -0.7 00:29:01 10° WNW 00:31:37 21° NNW 00:34:13 10° NE visible
31 May -0.2 02:06:41 10° NW 02:08:52 16° N 02:11:04 10° NE visible
31 May -1.5 03:42:57 10° NW 03:45:59 34° NNE 03:49:01 10° E visible
31 May -3.2 21:58:28 10° SW 22:01:35 47° SE 22:04:44 10° ENE visible
31 May -1.2 23:35:14 10° W 23:38:07 29° NNW 23:41:01 10° NE visible
01 Jun -0.2 01:13:09 10° NW 01:15:17 16° N 01:17:26 10° NE visible
01 Jun -0.9 02:49:46 10° NW 02:52:31 24° NNE 02:55:16 10° ENE visible
01 Jun -3.4 04:25:55 10° WNW 04:29:10 68° SW 04:32:24 10° SE visible
01 Jun -2.1 22:41:33 10° WSW 22:44:40 43° NNW 22:47:48 10° NE visible
02 Jun -0.3 00:19:25 10° NW 00:21:41 17° N 00:23:58 10° NE visible
02 Jun -0.5 01:56:31 10° NW 01:58:58 19° NNE 02:01:25 10° ENE visible
02 Jun -2.9 03:32:36 10° NW 03:35:51 64° NNE 03:39:05 10° ESE visible
02 Jun -3.2 21:48:03 10° WSW 21:51:17 77° NNW 21:54:32 10° NE visible
02 Jun -0.5 23:25:34 10° WNW 23:28:06 20° NNW 23:30:38 10° NE visible
